Location: Bartlow
(52.0833°N, 0.3167°E)
Time: 11:45:54
(UTC+00:00)

ATLAS CENTAUR R/B - Pass Details

Date: 26 September 2023
Orbit: 462 x 606 km, 64.7° (Epoch: 11 November)

Event Time Altitude Azimuth Distance (km) Brightness Sun altitude
Exits shadow 03:04:36 12° 340° (NNW) 1,522 3.7 -24.9°
Maximum altitude 03:05:11 13° 350° (N) 1,498 3.8 -24.9°
Drops below altitude 10° 03:06:53 10° 18° (NNE) 1,649 4.4 -24.7°
Sets 03:10:03 0° 49° (NE) 2,511 6.1 -24.3°
